GW6683 Weather Reports


time (UTC)temp
C
wind
direction
speed
KPH
gust
KPH
rain 1hr
cm
rain 24hr
cm
rain mn
cm
humidity
%
barometer
mb
20260508210045 27 88 1.6 4.8 1.19 0.33 0.33 92 1012.9
20260508205542 27 88 1.6 3.2 0.00 0.33 0.33 93 1012.9
20260508205038 27 88 1.6 3.2 0.00 0.33 0.33 92 1012.9
20260508204535 27 88 0.0 0.0 0.00 0.33 0.33 91 1012.9
20260508204031 27 58 0.0 0.0 0.00 0.33 0.33 92 1012.5
20260508203527 27 58 1.6 4.8 0.00 0.33 0.33 92 1012.5
20260508203023 27 58 1.6 6.4 0.00 0.33 0.33 91 1012.2
20260508202520 27 58 0.0 0.0 0.00 0.33 0.33 90 1012.2
20260508202017 27 109 0.0 0.0 0.00 0.33 0.33 90 1012.2
20260508201514 26 122 1.6 4.8 0.00 0.33 0.33 91 1011.9
20260508201010 26 77 1.6 4.8 0.00 0.33 0.33 92 1011.9
20260508200507 26 77 1.6 3.2 0.00 0.33 0.33 92 1011.9
20260508200002 26 102 1.6 8.0 0.00 0.33 0.33 92 1011.9
20260508195500 26 79 0.0 3.2 0.00 0.33 0.33 92 1011.9
20260508194956 26 130 4.8 9.7 0.00 0.33 0.33 91 1011.9
20260508194453 26 156 1.6 6.4 0.00 0.33 0.33 92 1011.9
20260508193950 26 53 0.0 4.8 0.00 0.33 0.33 93 1011.9
20260508193447 26 61 0.0 0.0 0.00 0.33 0.33 95 1011.9
20260508192943 26 61 0.0 3.2 0.00 0.33 0.33 94 1011.9
20260508192440 26 44 4.8 9.7 0.00 0.33 0.33 94 1011.9
20260508191937 26 44 0.0 3.2 0.00 0.33 0.33 94 1011.9
20260508191434 26 60 6.4 11.3 0.00 0.33 0.33 93 1011.9
20260508190931 26 44 3.2 8.0 0.00 0.33 0.33 92 1011.9
20260508190428 26 140 0.0 4.8 0.00 0.33 0.33 93 1011.5
20260508185924 26 50 1.6 9.7 0.00 0.33 0.33 93 1011.5
20260508185422 26 72 3.2 4.8 0.00 0.33 0.33 92 1011.5
20260508184919 26 133 6.4 11.3 0.00 0.33 0.33 94 1011.5
20260508184416 26 65 1.6 6.4 0.00 0.33 0.33 94 1011.2
20260508183913 26 65 0.0 0.0 0.00 0.33 0.33 94 1011.2
20260508183409 26 71 4.8 6.4 0.00 0.33 0.33 94 1011.2
20260508182905 26 62 3.2 8.0 0.00 0.33 0.33 94 1011.2
20260508182402 26 42 1.6 6.4 0.00 0.33 0.33 95 1010.8
20260508181857 26 48 3.2 9.7 0.00 0.33 0.33 95 1010.8
20260508181354 25 155 1.6 8.0 0.00 0.33 0.33 95 1010.8
20260508180852 25 180 0.0 3.2 0.00 0.33 0.33 96 1010.5
20260508180348 25 69 1.6 8.0 0.00 0.33 0.33 96 1010.8
20260508175844 25 69 1.6 6.4 0.00 0.33 0.33 96 1010.5
20260508175341 25 69 0.0 3.2 0.00 0.33 0.33 96 1010.5
20260508174839 25 89 3.2 8.0 0.00 0.33 0.33 98 1010.5
20260508174336 25 111 0.0 0.0 0.00 0.33 0.33 99 1010.8
20260508173833 25 111 1.6 4.8 0.00 0.33 0.33 99 1010.5
20260508173330 25 111 0.0 0.0 0.00 0.33 0.33 99 1010.8
20260508172826 25 111 0.0 0.0 0.00 0.30 0.30 100 1010.8
20260508172323 25 111 0.0 0.0 0.00 0.30 0.30 100 1010.8
20260508171820 25 111 1.6 3.2 0.00 0.30 0.30 100 1010.8
20260508171316 25 111 0.0 0.0 0.00 0.30 0.30 99 1010.8
20260508170813 25 111 0.0 0.0 0.00 0.30 0.30 99 1010.8
20260508170311 25 111 0.0 0.0 0.00 0.30 0.30 100 1010.8
20260508165807 25 111 0.0 0.0 0.00 0.30 0.30 99 1010.8
20260508165306 25 111 0.0 0.0 0.00 0.30 0.30 99 1010.5
20260508164800 25 111 0.0 0.0 0.00 0.30 0.30 99 1010.5
20260508164257 25 111 1.6 3.2 0.00 0.30 0.30 99 1010.5
20260508163755 25 111 0.0 0.0 0.00 0.30 0.30 99 1010.5
20260508163253 25 111 0.0 0.0 0.00 0.30 0.30 99 1010.5
20260508162748 25 111 0.0 0.0 0.00 0.30 0.30 99 1010.5
20260508162245 25 111 0.0 0.0 0.00 0.30 0.30 99 1010.5
20260508161742 25 111 0.0 0.0 0.00 0.30 0.30 99 1010.8
20260508161239 25 111 0.0 0.0 0.00 0.30 0.30 99 1010.8
20260508160737 25 111 0.0 0.0 0.00 0.30 0.30 98 1010.8
20260508160236 25 111 0.0 0.0 0.00 0.28 0.28 98 1010.8
20260508155732 25 111 0.0 0.0 0.00 0.28 0.28 98 1010.8
20260508155229 25 111 0.0 0.0 0.00 0.25 0.25 97 1010.8
20260508154725 25 111 0.0 0.0 1.19 0.20 0.20 97 1010.8
20260508154223 25 111 0.0 1.6 0.00 0.20 0.20 97 1010.5
20260508153720 25 111 0.0 0.0 0.00 0.20 0.20 97 1010.5
20260508153217 25 111 0.0 1.6 0.00 0.18 0.18 97 1010.5
20260508152713 25 73 3.2 8.0 0.00 0.18 0.18 97 1010.8
20260508152209 25 80 3.2 9.7 0.00 0.15 0.15 97 1010.8
20260508151706 25 32 0.0 4.8 0.00 0.15 0.15 98 1010.8
20260508151202 25 77 0.0 3.2 0.00 0.13 0.13 98 1010.8
20260508150659 25 77 1.6 4.8 0.00 0.13 0.13 98 1011.2
20260508150156 25 77 0.0 0.0 0.00 0.10 0.10 98 1011.2
20260508145652 25 77 1.6 3.2 1.19 0.08 0.08 97 1011.2
20260508145148 25 77 0.0 3.2 0.00 0.08 0.08 97 1011.2
20260508144646 25 71 3.2 6.4 0.00 0.08 0.08 96 1011.2
20260508144143 25 57 3.2 6.4 0.00 0.08 0.08 96 1011.5
20260508143640 25 54 0.0 3.2 0.00 0.05 0.05 96 1011.5
20260508143137 25 54 3.2 8.0 0.00 0.05 0.05 96 1011.5
20260508142634 25 50 3.2 8.0 0.00 0.05 0.05 96 1011.5
20260508142131 25 77 3.2 8.0 0.00 0.05 0.05 96 1011.5
20260508141627 25 117 3.2 8.0 0.00 0.05 0.05 95 1011.5
20260508141125 25 73 1.6 8.0 0.00 0.05 0.05 94 1011.5
20260508140622 25 132 1.6 4.8 0.00 0.05 0.05 95 1011.9
20260508140119 25 78 4.8 14.5 1.19 0.03 0.03 95 1011.9
20260508135614 25 67 0.0 3.2 0.00 0.03 0.03 95 1011.9
20260508135110 25 74 4.8 11.3 0.00 0.03 0.03 94 1011.9
20260508134607 25 102 3.2 9.7 0.00 0.03 0.03 94 1011.9
20260508134104 25 193 0.0 4.8 0.00 0.03 0.03 94 1011.9
20260508133601 25 54 3.2 8.0 0.00 0.03 0.03 95 1012.2
20260508133058 25 45 6.4 9.7 0.00 0.03 0.03 96 1011.9
20260508132556 25 105 0.0 0.0 0.00 0.03 0.03 97 1011.9
20260508132052 25 105 0.0 0.0 0.00 0.03 0.03 97 1012.2
20260508131548 25 105 0.0 0.0 0.00 0.00 0.00 97 1012.2
20260508131045 25 105 0.0 0.0 0.00 0.00 0.00 97 1011.9
20260508130542 25 105 0.0 0.0 0.00 0.00 0.00 96 1012.2
20260508130038 25 105 1.6 8.0 0.00 3.48 3.48 96 1011.9
20260508125534 25 57 4.8 8.0 0.00 3.48 3.48 97 1011.9
20260508125032 25 106 1.6 8.0 0.00 3.48 3.48 97 1012.2
20260508124530 25 50 1.6 6.4 0.00 3.45 3.45 97 1011.9
20260508124027 25 132 3.2 6.4 0.00 3.43 3.43 97 1012.2
20260508123525 25 81 3.2 6.4 0.00 3.40 3.40 97 1012.2
20260508123021 26 59 0.0 0.0 0.00 3.40 3.40 96 1012.2
20260508122518 26 116 4.8 12.9 0.00 3.40 3.40 95 1012.2
20260508122015 26 71 3.2 8.0 0.00 3.38 3.38 96 1012.2
20260508121514 25 58 3.2 8.0 0.00 3.38 3.38 97 1012.2
20260508121011 25 89 3.2 4.8 0.00 3.38 3.38 97 1012.5
20260508120508 25 89 0.0 0.0 0.00 3.38 3.38 97 1012.2
20260508120007 25 89 1.6 4.8 0.00 3.38 3.38 97 1012.5
20260508115504 25 89 0.0 3.2 0.00 3.38 3.38 97 1012.2
20260508115000 25 89 0.0 0.0 0.00 3.38 3.38 97 1012.5
20260508114457 25 89 0.0 4.8 0.00 3.38 3.38 97 1012.5
20260508113954 25 167 0.0 0.0 0.00 3.38 3.38 98 1012.5
20260508113451 25 106 0.0 0.0 0.00 3.38 3.38 98 1012.5
20260508112949 25 147 3.2 6.4 0.00 3.38 3.38 98 1012.5
20260508112445 25 289 0.0 0.0 0.00 3.38 3.38 99 1012.5
20260508111942 25 289 0.0 0.0 0.00 3.38 3.38 99 1012.5
20260508111439 25 289 0.0 0.0 0.00 3.38 3.38 99 1012.2
20260508110936 25 289 0.0 0.0 0.00 3.38 3.38 99 1012.2
20260508110434 25 289 0.0 0.0 0.00 3.38 3.38 99 1012.2
20260508105933 25 289 0.0 0.0 0.00 3.33 3.33 99 1012.2
20260508105430 25 289 0.0 0.0 0.00 3.33 3.33 99 1012.2
20260508104927 25 289 0.0 0.0 0.00 3.33 3.33 99 1011.9
20260508104424 25 289 0.0 0.0 0.00 3.33 3.33 99 1012.2
20260508103921 25 289 0.0 0.0 0.00 3.33 3.33 99 1011.9
20260508103418 25 289 0.0 0.0 0.00 3.33 3.33 99 1011.9
20260508102915 25 289 0.0 0.0 0.00 3.33 3.33 98 1011.9
20260508102414 25 47 0.0 0.0 0.00 3.33 3.33 99 1011.9
20260508101910 25 47 0.0 0.0 0.00 3.33 3.33 98 1011.9
20260508101408 25 47 0.0 0.0 1.19 3.25 3.25 98 1011.9
20260508100905 25 47 0.0 0.0 0.00 3.23 3.23 97 1011.9
20260508100404 25 47 0.0 0.0 0.00 3.23 3.23 97 1011.9
20260508095859 25 47 3.2 11.3 0.00 3.20 3.20 97 1011.9
20260508095357 25 151 0.0 0.0 0.00 3.17 3.17 97 1011.9
20260508094854 25 66 1.6 6.4 0.00 3.15 3.15 97 1011.9
20260508094350 25 108 0.0 3.2 0.00 3.15 3.15 98 1011.9
20260508093847 25 116 1.6 6.4 1.19 3.12 3.12 98 1011.9
20260508093345 25 69 0.0 0.0 0.00 3.12 3.12 98 1011.9
20260508092842 25 69 0.0 3.2 0.00 3.12 3.12 97 1011.9
20260508092340 25 33 4.8 9.7 0.00 3.12 3.12 97 1011.9
20260508091838 25 49 1.6 6.4 0.00 3.12 3.12 97 1011.9
20260508091334 25 69 1.6 4.8 0.00 3.12 3.12 98 1011.9
20260508090832 25 92 1.6 6.4 0.00 3.12 3.12 97 1011.9
20260508090331 25 74 1.6 4.8 0.00 3.12 3.12 98 1011.9
20260508085831 25 74 0.0 4.8 1.19 3.10 3.10 98 1011.5
20260508085329 25 79 0.0 0.0 0.00 3.10 3.10 98 1011.5
20260508084825 25 69 4.8 11.3 1.19 3.02 3.02 98 1011.9
20260508084322 25 70 0.0 0.0 0.00 3.02 3.02 98 1011.5
20260508083820 25 70 1.6 3.2 1.19 2.97 2.97 97 1011.5
20260508083317 25 70 0.0 0.0 0.00 2.97 2.97 97 1011.5
20260508082816 26 70 0.0 3.2 0.00 2.97 2.97 96 1011.5
20260508082314 26 70 0.0 1.6 0.00 2.97 2.97 96 1011.5
20260508081812 26 70 3.2 6.4 0.00 2.97 2.97 96 1011.5
20260508081308 26 70 1.6 3.2 0.00 2.97 2.97 96 1011.5
20260508080805 25 41 3.2 4.8 0.00 2.97 2.97 96 1011.5
20260508080303 25 36 0.0 0.0 0.00 2.97 2.97 97 1011.5
20260508075759 25 92 0.0 0.0 0.00 2.97 2.97 97 1011.5
20260508075256 25 92 0.0 0.0 0.00 2.97 2.97 96 1011.2
20260508074754 26 320 0.0 0.0 0.00 2.97 2.97 96 1011.2
20260508074251 26 334 0.0 4.8 0.00 2.97 2.97 95 1010.8
20260508073748 26 73 0.0 4.8 0.00 2.97 2.97 95 1010.8
20260508073246 26 152 3.2 8.0 0.00 2.97 2.97 95 1010.8
20260508072742 25 74 4.8 9.7 0.00 2.97 2.97 96 1010.8
20260508072239 26 61 1.6 4.8 0.00 2.97 2.97 95 1010.5
20260508071736 26 62 4.8 6.4 0.00 2.97 2.97 95 1010.5
20260508071235 26 62 0.0 3.2 0.00 2.97 2.97 95 1010.5
20260508070732 26 71 0.0 0.0 0.00 2.97 2.97 95 1010.5
20260508070231 26 58 1.6 3.2 0.00 2.97 2.97 93 1010.5
20260508065727 26 59 3.2 8.0 0.00 2.97 2.97 93 1010.2
20260508065225 26 50 0.0 3.2 0.00 2.97 2.97 93 1010.2
20260508064722 26 87 3.2 8.0 0.00 2.97 2.97 92 1010.2
20260508064221 26 45 6.4 12.9 0.00 2.97 2.97 91 1010.2
20260508063718 26 72 3.2 8.0 0.00 2.97 2.97 91 1010.2
20260508063215 26 8 4.8 6.4 0.00 2.97 2.97 91 1010.2
20260508062713 26 71 0.0 0.0 0.00 2.97 2.97 91 1009.8
20260508062210 26 71 0.0 1.6 0.00 2.97 2.97 92 1009.8
20260508061707 26 71 0.0 0.0 0.00 2.97 2.97 91 1009.8
20260508061204 26 69 4.8 16.1 0.00 2.97 2.97 92 1009.8
20260508060702 26 71 0.0 4.8 0.00 2.97 2.97 93 1009.8
20260508060158 26 64 3.2 11.3 0.00 2.97 2.97 94 1009.8
20260508055653 26 85 6.4 14.5 0.00 2.97 2.97 94 1009.8
20260508055150 26 63 3.2 9.7 0.00 2.97 2.97 94 1009.8
20260508054647 26 67 1.6 6.4 0.00 2.97 2.97 94 1009.8
20260508054145 26 75 1.6 6.4 0.00 2.97 2.97 93 1009.8
20260508053641 26 122 0.0 0.0 0.00 2.97 2.97 93 1009.8
20260508053139 26 101 4.8 14.5 0.00 2.97 2.97 92 1009.5
20260508052636 26 73 9.7 16.1 0.00 2.97 2.97 92 1009.5
20260508052133 26 98 1.6 6.4 0.00 2.97 2.97 92 1009.5
20260508051629 26 63 3.2 6.4 0.00 2.97 2.97 94 1009.5
20260508051125 26 63 4.8 11.3 0.00 2.97 2.97 94 1009.5
20260508050621 26 91 4.8 11.3 0.00 2.97 2.97 93 1009.8
20260508050119 26 64 3.2 6.4 0.00 2.97 2.97 95 1009.8
20260508045614 26 74 3.2 8.0 0.00 2.97 2.97 95 1009.5
20260508045113 26 65 0.0 4.8 0.00 2.97 2.97 95 1009.8
20260508044609 26 67 0.0 3.2 0.00 2.97 2.97 95 1009.8
20260508044106 26 67 1.6 6.4 0.00 2.97 2.97 95 1009.8
20260508043602 26 91 1.6 4.8 0.00 2.97 2.97 95 1009.8
20260508043100 26 101 0.0 3.2 0.00 2.97 2.97 94 1009.5
20260508042556 26 45 3.2 14.5 0.00 2.97 2.97 94 1009.8
20260508042054 26 56 3.2 6.4 0.00 2.97 2.97 94 1009.5
20260508041550 27 90 3.2 11.3 0.00 2.97 2.97 94 1009.8
20260508041046 27 48 3.2 6.4 0.00 2.97 2.97 94 1009.8
20260508040543 27 51 0.0 3.2 0.00 2.97 2.97 94 1009.8
20260508040041 27 51 0.0 1.6 0.00 2.97 2.97 94 1009.8
20260508035537 27 50 3.2 6.4 0.00 2.97 2.97 93 1009.8
20260508035035 27 64 4.8 9.7 0.00 2.97 2.97 93 1009.8
20260508034532 27 84 3.2 9.7 0.00 2.97 2.97 92 1009.8
20260508034029 27 93 8.0 19.3 0.00 2.97 2.97 92 1009.8
20260508033527 27 60 8.0 14.5 0.00 2.97 2.97 91 1009.8
20260508033025 27 72 6.4 14.5 0.00 2.97 2.97 92 1009.8
20260508032521 27 55 3.2 9.7 0.00 2.97 2.97 92 1009.8
20260508032019 27 88 3.2 6.4 0.00 2.97 2.97 92 1009.8
20260508031516 27 100 1.6 6.4 0.00 2.97 2.97 92 1009.8
20260508031011 27 76 0.0 4.8 0.00 2.97 2.97 92 1009.8
20260508030508 27 60 1.6 4.8 0.00 2.97 2.97 91 1009.8
20260508030007 27 67 4.8 12.9 0.00 2.97 2.97 91 1010.2
20260508025502 27 54 3.2 6.4 0.00 2.97 2.97 92 1010.2
20260508024959 27 101 3.2 12.9 0.00 2.97 2.97 91 1010.2
20260508024455 27 128 1.6 6.4 0.00 2.97 2.97 93 1010.2
20260508023952 27 60 0.0 0.0 0.00 2.97 2.97 94 1010.2
20260508023448 27 56 4.8 8.0 0.00 2.97 2.97 93 1010.2
20260508022946 27 170 0.0 3.2 0.00 2.97 2.97 91 1010.2
20260508022441 27 83 1.6 6.4 0.00 2.97 2.97 89 1010.2
20260508021938 27 54 1.6 6.4 0.00 2.97 2.97 91 1010.5
20260508021435 27 54 4.8 8.0 0.00 2.97 2.97 90 1010.2
20260508020930 27 97 1.6 6.4 0.00 2.97 2.97 90 1010.5
20260508020429 27 52 4.8 9.7 0.00 2.97 2.97 89 1010.5
20260508015925 27 68 0.0 3.2 0.00 2.97 2.97 90 1010.2
20260508015423 27 41 3.2 8.0 0.00 2.97 2.97 91 1010.5
20260508014919 27 61 1.6 6.4 0.00 2.97 2.97 91 1010.5
20260508014417 27 132 0.0 0.0 0.00 2.97 2.97 91 1010.5
20260508013917 27 132 0.0 0.0 0.00 2.97 2.97 90 1010.5
20260508013414 27 132 0.0 0.0 0.00 2.97 2.97 89 1010.5
20260508012911 27 70 1.6 3.2 0.00 2.97 2.97 90 1010.5
20260508012408 27 62 0.0 3.2 0.00 2.97 2.97 91 1010.5
20260508011906 27 77 1.6 4.8 0.00 2.97 2.97 90 1010.8
20260508011404 27 64 6.4 12.9 0.00 2.97 2.97 91 1010.8
20260508010901 27 333 0.0 0.0 0.00 2.97 2.97 92 1010.8
20260508010358 27 50 3.2 4.8 0.00 2.97 2.97 92 1010.8
20260508005855 27 53 1.6 6.4 0.00 2.97 2.97 91 1010.8
20260508005351 27 349 1.6 6.4 0.00 2.97 2.97 91 1010.8
20260508004848 27 347 3.2 6.4 0.00 2.97 2.97 91 1010.8
20260508004344 27 57 0.0 3.2 0.00 2.97 2.97 91 1010.8
20260508003841 26 290 4.8 8.0 0.00 2.97 2.97 93 1010.8
20260508003338 26 311 1.6 3.2 0.00 2.97 2.97 93 1010.8
20260508002835 26 310 3.2 6.4 0.00 2.97 2.97 92 1010.8
20260508002332 26 30 6.4 9.7 0.00 2.97 2.97 92 1010.8
20260508001828 26 59 4.8 8.0 0.00 2.97 2.97 92 1010.8
20260508001324 26 53 4.8 8.0 0.00 2.97 2.97 94 1010.8
20260508000820 26 8 0.0 3.2 0.00 2.97 2.97 95 1011.2
20260508000319 26 195 0.0 1.6 0.00 2.97 2.97 96 1011.2
20260507235814 26 195 0.0 0.0 0.00 2.97 2.97 96 1011.2
20260507235311 26 195 0.0 0.0 0.00 2.97 2.97 95 1011.5
20260507234808 26 195 0.0 0.0 0.00 2.97 2.97 96 1011.5
20260507234305 26 195 1.6 4.8 0.00 2.97 2.97 97 1011.5
20260507233801 25 195 0.0 0.0 0.00 2.97 2.97 97 1011.2
20260507233259 25 195 0.0 3.2 0.00 2.97 2.97 98 1011.2
20260507232757 25 195 0.0 0.0 0.00 2.97 2.97 99 1011.2
20260507232253 25 86 0.0 0.0 0.00 2.97 2.97 99 1011.2
20260507231749 25 86 3.2 4.8 0.00 2.97 2.97 99 1011.5
20260507231246 25 73 1.6 3.2 0.00 2.97 2.97 99 1011.5
20260507230743 25 69 1.6 4.8 0.00 2.97 2.97 99 1011.5
20260507230241 25 63 3.2 6.4 0.00 2.97 2.97 99 1011.5
20260507225740 25 63 3.2 6.4 0.00 2.97 2.97 99 1011.5
20260507225236 25 58 6.4 11.3 0.00 2.97 2.97 99 1011.9
20260507224732 25 39 3.2 6.4 0.00 2.97 2.97 99 1011.9
20260507224229 25 45 6.4 9.7 0.00 2.97 2.97 99 1011.9
20260507223725 25 76 6.4 9.7 0.00 2.97 2.97 98 1011.9
20260507223222 25 25 4.8 8.0 0.00 2.97 2.97 98 1011.9
20260507222719 25 60 6.4 11.3 0.00 2.95 2.95 98 1011.9
20260507222215 25 71 6.4 14.5 0.00 2.95 2.95 98 1011.9
20260507221712 25 36 3.2 6.4 0.00 2.95 2.95 97 1011.9
20260507221208 25 55 8.0 14.5 0.00 2.95 2.95 98 1011.9
20260507220705 25 65 4.8 9.7 0.00 2.95 2.95 98 1012.2
20260507220203 25 56 8.0 12.9 0.00 2.95 2.95 98 1012.2
20260507215659 25 80 6.4 11.3 0.00 2.95 2.95 98 1012.2
20260507215157 25 31 3.2 8.0 0.00 2.95 2.95 98 1012.2
20260507214654 25 48 4.8 12.9 0.00 2.95 2.95 99 1012.2
20260507214150 25 65 4.8 9.7 0.00 2.95 2.95 99 1012.2
20260507213646 25 55 3.2 11.3 1.19 2.92 2.92 99 1012.2
20260507213144 25 57 3.2 8.0 0.00 2.92 2.92 98 1012.2
20260507212639 25 71 4.8 17.7 0.00 2.92 2.92 99 1012.2
20260507212136 25 66 4.8 9.7 0.00 2.92 2.92 99 1011.9
20260507211633 25 68 3.2 6.4 0.00 2.92 2.92 99 1012.2
20260507211129 25 51 4.8 11.3 0.00 2.90 2.90 99 1011.9
20260507210627 25 48 6.4 8.0 1.19 2.87 2.87 99 1012.2